Location: Foulognes
(49.1413°N, 0.8183°W)
Time: 07:12:20
(UTC+00:00)

STARLINK-57 - Pass Details

Date: 21 October 2019
Orbit: 548 x 551 km, 53.0° (Epoch: 16 November)

Event Time Altitude Azimuth Distance (km) Brightness Sun altitude
Rises 17:24:22 0° 265° (W) 2,714 9.9 -4.3°
Reaches altitude 10° 17:26:38 10° 269° (W) 1,822 8.0 -4.7°
Maximum altitude 17:30:43 55° 348° (NNW) 664 4.1 -5.3°
Drops below altitude 10° 17:34:48 10° 68° (ENE) 1,826 5.6 -6.0°
Enters shadow 17:35:22 - 69° (ENE) 2,052 5.9 -6.1°
